Weather in Tangolunda

Mexico     15°46′30″N   96°05′32″W
temp.,
°C
wind,
m/s
gust,
m/s
humid.,
%
clouds,
%
prec.,
mm/h
press.,
hPa
HPBL,
m
19 april, mon
mon1901:00+26n11663 0.0 1012147
04:00+26ne23695 0.0 1011281
07:00+26ene12715 0.0 1012365
10:00+28sse21626 0.0 1013603
13:00+28s526317 0.0 1012699
16:00+29ssw54625 0.0 1009629
19:00+28sw56610 0.0 1009432
22:00+27wsw56659 0.0 1011295
20 april, tue
tue2001:00+26w566717 0.0 1011262
04:00+25w22675 0.0 1010161
07:00+25ne23725 0.0 1011277
10:00+27e557028 0.0 1013801
13:00+28se436713 0.0 1012674
16:00+29sse32628 0.0 1009647
19:00+28ssw33646 0.0 1010359
22:00+27w34675 0.0 1012224
21 april, wed
wed2101:00+26w22674 0.0 1013165
04:00+26nne227190 0.0 1012175
07:00+26ene2376100 0.0 1012375
10:00+28sw2166100 0.0 1013443
13:00+29ssw646532 0.0 1012633
16:00+29sw65653 0.1 1010650
19:00+28sw66695 0.5 1009349
22:00+27sw447318 0.1 1011166
22 april, thu
thu2201:00+27w117356 0.1 1013156
04:00+26nw1173100 0.0 101092
07:00+26w2273100 0.0 1011165
10:00+29wsw3461100 0.0 1012511
13:00+29ssw6364100 0.0 1011721
16:00+29ssw536598 0.0 1009588
19:00+29sw55715 0.1 1009412
22:00+28sw4568100 0.0 1011134
23 april, fri
fri2301:00+27wsw3371100 0.1 1012205
04:00+27wnw2268100 0.0 1010141
07:00+27w116799 0.0 1011149
10:00+29sse115545 0.0 1012427
13:00+30s435578 0.0 1011706
16:00+30ssw54608 0.0 1009729
19:00+28sw4570100 0.0 1010581
22:00+27wsw467646 0.4 1011383